軌道要素
Epoch 2010 Mar. 25.0 TT = JDT 2455280.5
T 2010 Apr. 11.02406 TT MPC
q 4.9076358 (2000.0) P Q
z +0.0004247 Peri. 75.19171 -0.04239425 -0.72603924
+/-0.0000020 Node 313.71642 -0.72681650 +0.49376354
e 0.9979156 Incl. 108.26722 +0.68552206 +0.47860693
From 213 observations 2010 Apr. 14-2011 May 23, mean residual 0".6.
|